PILOTS ONLINE: 405    ATC ONLINE: 58

KSEE - Gillespie Field

Location

City San Diego/El Cajon
Country  United States
Latitude 32° 49' 34" N
Longitude 116° 58' 19" W
Elevation 388 ft
Type Small Airport

Runways

09L/27R 5342 ft / 100 ft
09R/27L 2738 ft / 60 ft
17/35 4145 ft / 100 ft

Weather

METAR
2014/07/29 22:35
KSEE 292235Z AUTO 29010G17KT 10SM CLR 36/07 A2996 RMK AO2
TAF
No TAF available

Outbound flights

Inbound flights